{"data":{"norad_id":63975,"intl_designator":"2025-099Z","name":"STARLINK-34139","alt_names":[],"object_type":"PAYLOAD","status":"ACTIVE","operator":null,"country":"US","launch_date":"2025-05-13","launch_site_code":"AFETR","launch_vehicle":null,"mission":null,"orbit_class":"UNKNOWN","rcs_meters":null,"size_class":null,"mass_kg":null,"dimensions":null,"purposes":["comms"],"wikipedia_slug":null,"has_3d_model":false,"image_url":null,"decayed_at":null,"tle_current":{"epoch":"2026-09-20T09:39:41.899392Z","epoch_age_seconds":152155,"freshness":"FRESH","line1":"1 63975U 25099Z   26263.40256828  .00019204  00000+0  70526-3 0  9997","line2":"2 63975  42.9995 153.2399 0001152  58.6454 301.4510 15.27594502 77067","mean_motion":15.27594502,"eccentricity":0.0001152,"inclination_deg":42.9995,"raan_deg":153.2399,"arg_perigee_deg":58.6454,"mean_anomaly_deg":301.451,"bstar":0.00070526,"rev_number":7706,"period_min":94.26585380575,"perigee_km":482.21526854229,"apogee_km":483.79607581396,"semimajor_km":6861.1426721781,"source":"CELESTRAK","updated_at":"2026-09-21T09:00:35.178538Z"}}}